Time,TemperatureF,DewpointF,PressureIn,WindDirection,WindDirectionDegrees,WindSpeedMPH,WindSpeedGustMPH,Humidity,HourlyPrecipIn,Conditions,Clouds,dailyrainin,SoftwareType,DateUTC
2013-12-06 00:00:00,16.7,-2.4,30.28,West,270,6.0,11.0,42,0.00,,,0.00,meteohub,2013-12-06 06:00:00,
2013-12-06 00:05:00,16.7,-2.4,30.29,North,0,2.0,6.0,42,0.00,,,0.00,meteohub,2013-12-06 06:05:00,
2013-12-06 00:10:00,16.7,-2.4,30.30,West,270,4.0,7.0,42,0.00,,,0.00,meteohub,2013-12-06 06:10:00,
2013-12-06 00:16:00,16.7,-2.4,30.30,North,0,3.0,7.0,42,0.00,,,0.00,meteohub,2013-12-06 06:16:00,
2013-12-06 00:21:00,16.7,-2.4,30.29,North,0,3.0,7.0,42,0.00,,,0.00,meteohub,2013-12-06 06:21:00,
2013-12-06 00:26:00,16.7,-2.4,30.30,SW,225,4.0,5.0,42,0.00,,,0.00,meteohub,2013-12-06 06:26:00,
2013-12-06 00:31:00,16.7,-2.4,30.29,SW,225,3.0,5.0,42,0.00,,,0.00,meteohub,2013-12-06 06:31:00,
2013-12-06 00:36:00,16.7,-2.4,30.28,NW,315,4.0,5.0,42,0.00,,,0.00,meteohub,2013-12-06 06:36:00,
2013-12-06 00:41:00,16.5,-2.6,30.28,NE,45,5.0,6.0,42,0.00,,,0.00,meteohub,2013-12-06 06:41:00,
2013-12-06 00:46:00,16.5,-2.6,30.27,ENE,68,8.0,11.0,42,0.00,,,0.00,meteohub,2013-12-06 06:46:00,
2013-12-06 00:51:00,16.3,-2.7,30.29,NW,315,3.0,11.0,42,0.00,,,0.00,meteohub,2013-12-06 06:51:00,
2013-12-06 00:56:00,16.5,-2.0,30.28,SW,225,4.0,11.0,43,0.00,,,0.00,meteohub,2013-12-06 06:56:00,
2013-12-06 01:01:00,16.3,-2.7,30.29,North,0,7.0,9.0,42,0.00,,,0.00,meteohub,2013-12-06 07:01:00,
2013-12-06 01:06:00,16.3,-2.7,30.28,North,0,7.0,7.0,42,0.00,,,0.00,meteohub,2013-12-06 07:06:00,
2013-12-06 01:11:00,16.3,-3.3,30.28,SW,225,5.0,8.0,41,0.00,,,0.00,meteohub,2013-12-06 07:11:00,
2013-12-06 01:16:00,16.2,-4.0,30.29,NW,315,8.0,12.0,40,0.00,,,0.00,meteohub,2013-12-06 07:16:00,
2013-12-06 01:21:00,16.2,-4.0,30.29,NW,315,6.0,12.0,40,0.00,,,0.00,meteohub,2013-12-06 07:21:00,
2013-12-06 01:26:00,16.2,-4.5,30.28,North,0,5.0,12.0,39,0.00,,,0.00,meteohub,2013-12-06 07:26:00,
2013-12-06 01:31:00,16.2,-4.5,30.28,NW,315,4.0,11.0,39,0.00,,,0.00,meteohub,2013-12-06 07:31:00,
2013-12-06 01:36:00,16.2,-4.0,30.28,NW,315,3.0,11.0,40,0.00,,,0.00,meteohub,2013-12-06 07:36:00,
2013-12-06 01:41:00,16.2,-3.5,30.27,WNW,293,2.0,11.0,41,0.00,,,0.00,meteohub,2013-12-06 07:41:00,
2013-12-06 01:46:00,16.2,-3.5,30.27,NW,315,6.0,11.0,41,0.00,,,0.00,meteohub,2013-12-06 07:46:00,
2013-12-06 01:51:00,16.0,-3.1,30.28,North,0,5.0,11.0,42,0.00,,,0.00,meteohub,2013-12-06 07:51:00,
2013-12-06 01:56:00,16.2,-2.9,30.28,NW,315,8.0,11.0,42,0.00,,,0.00,meteohub,2013-12-06 07:56:00,
2013-12-06 02:02:00,16.2,-2.9,30.28,West,270,7.0,8.0,42,0.00,,,0.00,meteohub,2013-12-06 08:02:00,
2013-12-06 02:07:00,16.0,-3.1,30.29,WNW,293,4.0,8.0,42,0.00,,,0.00,meteohub,2013-12-06 08:07:00,
2013-12-06 02:12:00,16.2,-2.9,30.28,South,180,4.0,8.0,42,0.00,,,0.00,meteohub,2013-12-06 08:12:00,
2013-12-06 02:17:00,16.0,-3.6,30.28,West,270,4.0,8.0,41,0.00,,,0.00,meteohub,2013-12-06 08:17:00,
2013-12-06 02:22:00,16.0,-3.6,30.29,West,270,4.0,8.0,41,0.00,,,0.00,meteohub,2013-12-06 08:22:00,
2013-12-06 02:27:00,16.0,-4.0,30.29,SSE,158,3.0,8.0,40,0.00,,,0.00,meteohub,2013-12-06 08:27:00,
2013-12-06 02:32:00,16.0,-4.0,30.28,North,0,4.0,8.0,40,0.00,,,0.00,meteohub,2013-12-06 08:32:00,
2013-12-06 02:37:00,16.0,-4.0,30.29,SW,225,4.0,8.0,40,0.00,,,0.00,meteohub,2013-12-06 08:37:00,
2013-12-06 02:42:00,15.8,-4.7,30.29,West,270,4.0,7.0,39,0.00,,,0.00,meteohub,2013-12-06 08:42:00,
2013-12-06 02:47:00,15.8,-4.7,30.29,NW,315,5.0,8.0,39,0.00,,,0.00,meteohub,2013-12-06 08:47:00,
2013-12-06 02:52:00,15.8,-5.3,30.30,SE,135,5.0,8.0,38,0.00,,,0.00,meteohub,2013-12-06 08:52:00,
2013-12-06 02:57:00,15.8,-5.3,30.29,East,90,5.0,8.0,38,0.00,,,0.00,meteohub,2013-12-06 08:57:00,
2013-12-06 03:02:00,15.6,-5.4,30.29,NE,45,11.0,11.0,38,0.00,,,0.00,meteohub,2013-12-06 09:02:00,
2013-12-06 03:07:00,15.6,-5.4,30.28,NE,45,11.0,11.0,38,0.00,,,0.00,meteohub,2013-12-06 09:07:00,
2013-12-06 03:12:00,15.6,-6.0,30.30,SW,225,3.0,11.0,37,0.00,,,0.00,meteohub,2013-12-06 09:12:00,
2013-12-06 03:17:00,15.4,-6.2,30.29,SW,225,3.0,11.0,37,0.00,,,0.00,meteohub,2013-12-06 09:17:00,
2013-12-06 03:22:00,15.3,-6.9,30.28,SW,225,8.0,11.0,36,0.00,,,0.00,meteohub,2013-12-06 09:22:00,
2013-12-06 03:27:00,15.1,-6.5,30.28,NE,45,7.0,10.0,37,0.00,,,0.00,meteohub,2013-12-06 09:27:00,
2013-12-06 03:32:00,15.1,-6.5,30.28,SSW,203,5.0,10.0,37,0.00,,,0.00,meteohub,2013-12-06 09:32:00,
2013-12-06 03:37:00,15.1,-6.0,30.30,West,270,6.0,11.0,38,0.00,,,0.00,meteohub,2013-12-06 09:37:00,
2013-12-06 03:42:00,14.9,-6.7,30.30,NNW,338,4.0,11.0,37,0.00,,,0.00,meteohub,2013-12-06 09:42:00,
2013-12-06 03:47:00,14.9,-6.2,30.30,SE,135,5.0,11.0,38,0.00,,,0.00,meteohub,2013-12-06 09:47:00,
2013-12-06 03:52:00,14.9,-6.7,30.30,South,180,6.0,8.0,37,0.00,,,0.00,meteohub,2013-12-06 09:52:00,
2013-12-06 03:57:00,14.7,-6.3,30.30,West,270,2.0,8.0,38,0.00,,,0.00,meteohub,2013-12-06 09:57:00,
2013-12-06 04:02:00,14.7,-6.3,30.30,NNE,23,6.0,11.0,38,0.00,,,0.00,meteohub,2013-12-06 10:02:00,
2013-12-06 04:07:00,14.7,-6.3,30.29,NNE,23,6.0,11.0,38,0.00,,,0.00,meteohub,2013-12-06 10:07:00,
2013-12-06 04:12:00,14.5,-6.5,30.30,NE,45,4.0,11.0,38,0.00,,,0.00,meteohub,2013-12-06 10:12:00,
2013-12-06 04:17:00,14.5,-6.0,30.30,SW,225,5.0,6.0,39,0.00,,,0.00,meteohub,2013-12-06 10:17:00,
2013-12-06 04:22:00,14.5,-5.4,30.30,West,270,4.0,6.0,40,0.00,,,0.00,meteohub,2013-12-06 10:22:00,
2013-12-06 04:27:00,14.5,-5.4,30.30,NE,45,4.0,6.0,40,0.00,,,0.00,meteohub,2013-12-06 10:27:00,
2013-12-06 04:32:00,14.5,-5.4,30.30,NE,45,4.0,7.0,40,0.00,,,0.00,meteohub,2013-12-06 10:32:00,
2013-12-06 04:37:00,14.4,-5.1,30.30,NW,315,5.0,7.0,41,0.00,,,0.00,meteohub,2013-12-06 10:37:00,
2013-12-06 04:42:00,14.4,-5.1,30.30,North,0,8.0,8.0,41,0.00,,,0.00,meteohub,2013-12-06 10:42:00,
2013-12-06 04:47:00,14.2,-5.3,30.29,NE,45,4.0,8.0,41,0.00,,,0.00,meteohub,2013-12-06 10:47:00,
2013-12-06 04:52:00,14.2,-5.3,30.29,North,0,7.0,8.0,41,0.00,,,0.00,meteohub,2013-12-06 10:52:00,
2013-12-06 04:57:00,14.2,-5.8,30.28,NW,315,4.0,8.0,40,0.00,,,0.00,meteohub,2013-12-06 10:57:00,
2013-12-06 05:02:00,14.2,-5.3,30.30,South,180,4.0,8.0,41,0.00,,,0.00,meteohub,2013-12-06 11:02:00,
2013-12-06 05:07:00,14.2,-5.3,30.31,South,180,4.0,8.0,41,0.00,,,0.00,meteohub,2013-12-06 11:07:00,
2013-12-06 05:12:00,14.2,-6.2,30.32,North,0,8.0,8.0,39,0.00,,,0.00,meteohub,2013-12-06 11:12:00,
2013-12-06 05:17:00,14.0,-6.3,30.31,East,90,8.0,11.0,39,0.00,,,0.00,meteohub,2013-12-06 11:17:00,
2013-12-06 05:22:00,13.8,-6.5,30.31,NW,315,4.0,11.0,39,0.00,,,0.00,meteohub,2013-12-06 11:22:00,
2013-12-06 05:27:00,13.8,-6.5,30.31,West,270,4.0,11.0,39,0.00,,,0.00,meteohub,2013-12-06 11:27:00,
2013-12-06 05:32:00,13.8,-5.6,30.32,SE,135,5.0,10.0,41,0.00,,,0.00,meteohub,2013-12-06 11:32:00,
2013-12-06 05:37:00,14.0,-4.9,30.32,North,0,6.0,8.0,42,0.00,,,0.00,meteohub,2013-12-06 11:37:00,
2013-12-06 05:42:00,13.6,-5.3,30.32,NW,315,11.0,11.0,42,0.00,,,0.00,meteohub,2013-12-06 11:42:00,
2013-12-06 05:47:00,13.5,-5.4,30.32,WNW,293,5.0,11.0,42,0.00,,,0.00,meteohub,2013-12-06 11:47:00,
2013-12-06 05:52:00,13.5,-5.4,30.32,NNW,338,7.0,11.0,42,0.00,,,0.00,meteohub,2013-12-06 11:52:00,
2013-12-06 05:57:00,13.5,-5.4,30.32,SE,135,8.0,11.0,42,0.00,,,0.00,meteohub,2013-12-06 11:57:00,
2013-12-06 06:02:00,13.3,-5.1,30.31,NW,315,7.0,8.0,43,0.00,,,0.00,meteohub,2013-12-06 12:02:00,
2013-12-06 06:07:00,13.3,-5.1,30.31,NW,315,7.0,8.0,43,0.00,,,0.00,meteohub,2013-12-06 12:07:00,
2013-12-06 06:12:00,12.7,-5.6,30.31,NW,315,4.0,8.0,43,0.00,,,0.00,meteohub,2013-12-06 12:12:00,
2013-12-06 06:17:00,12.7,-5.6,30.30,SE,135,9.0,9.0,43,0.00,,,0.00,meteohub,2013-12-06 12:17:00,
2013-12-06 06:22:00,12.6,-5.6,30.29,NE,45,4.0,11.0,43,0.00,,,0.00,meteohub,2013-12-06 12:22:00,
2013-12-06 06:27:00,12.4,-5.4,30.28,NW,315,10.0,11.0,44,0.00,,,0.00,meteohub,2013-12-06 12:27:00,
2013-12-06 06:32:00,12.2,-5.6,30.29,NW,315,7.0,11.0,44,0.00,,,0.00,meteohub,2013-12-06 12:32:00,
2013-12-06 06:37:00,12.2,-5.6,30.28,North,0,8.0,10.0,44,0.00,,,0.00,meteohub,2013-12-06 12:37:00,
2013-12-06 16:35:00,16.7,-14.6,30.42,SW,225,4.0,4.0,23,0.00,,,0.00,meteohub,2013-12-06 22:35:00,
2013-12-06 16:40:00,16.5,-15.7,30.42,East,90,8.0,8.0,22,0.00,,,0.00,meteohub,2013-12-06 22:40:00,
2013-12-06 16:45:00,16.3,-15.0,30.42,NE,45,5.0,8.0,23,0.00,,,0.00,meteohub,2013-12-06 22:45:00,
2013-12-06 16:50:00,16.3,-15.0,30.42,SSW,203,5.0,8.0,23,0.00,,,0.00,meteohub,2013-12-06 22:50:00,
2013-12-06 16:56:00,16.2,-15.2,30.42,North,0,4.0,8.0,23,0.00,,,0.00,meteohub,2013-12-06 22:56:00,
2013-12-06 17:01:00,16.2,-16.1,30.43,West,270,6.0,8.0,22,0.00,,,0.00,meteohub,2013-12-06 23:01:00,
2013-12-06 17:06:00,16.2,-16.1,30.43,West,270,6.0,8.0,22,0.00,,,0.00,meteohub,2013-12-06 23:06:00,
2013-12-06 17:11:00,16.0,-16.2,30.43,NW,315,4.0,8.0,22,0.00,,,0.00,meteohub,2013-12-06 23:11:00,
2013-12-06 17:16:00,16.0,-15.3,30.43,SW,225,4.0,7.0,23,0.00,,,0.00,meteohub,2013-12-06 23:16:00,
2013-12-06 17:21:00,15.8,-15.5,30.43,SW,225,7.0,7.0,23,0.00,,,0.00,meteohub,2013-12-06 23:21:00,
2013-12-06 17:26:00,15.8,-14.6,30.43,ENE,68,4.0,7.0,24,0.00,,,0.00,meteohub,2013-12-06 23:26:00,
2013-12-06 17:31:00,15.8,-13.7,30.43,NE,45,7.0,8.0,25,0.00,,,0.00,meteohub,2013-12-06 23:31:00,
2013-12-06 17:36:00,15.6,-13.9,30.44,NW,315,3.0,10.0,25,0.00,,,0.00,meteohub,2013-12-06 23:36:00,
2013-12-06 17:41:00,15.4,-14.1,30.44,NW,315,4.0,10.0,25,0.00,,,0.00,meteohub,2013-12-06 23:41:00,
2013-12-06 17:46:00,15.4,-13.4,30.44,NW,315,4.0,10.0,26,0.00,,,0.00,meteohub,2013-12-06 23:46:00,
2013-12-06 17:51:00,15.4,-13.4,30.45,NW,315,5.0,10.0,26,0.00,,,0.00,meteohub,2013-12-06 23:51:00,
2013-12-06 17:56:00,15.3,-13.5,30.44,North,0,4.0,10.0,26,0.00,,,0.00,meteohub,2013-12-06 23:56:00,
2013-12-06 18:01:00,15.1,-13.7,30.45,NW,315,4.0,10.0,26,0.00,,,0.00,meteohub,2013-12-07 00:01:00,
2013-12-06 18:06:00,15.1,-13.7,30.45,NW,315,4.0,7.0,26,0.00,,,0.00,meteohub,2013-12-07 00:06:00,
2013-12-06 18:11:00,14.9,-12.3,30.45,SW,225,7.0,7.0,28,0.00,,,0.00,meteohub,2013-12-07 00:11:00,
2013-12-06 18:16:00,14.9,-12.3,30.45,North,0,4.0,8.0,28,0.00,,,0.00,meteohub,2013-12-07 00:16:00,
2013-12-06 18:21:00,14.7,-12.5,30.45,West,270,7.0,8.0,28,0.00,,,0.00,meteohub,2013-12-07 00:21:00,
2013-12-06 18:26:00,14.5,-11.9,30.45,NW,315,8.0,8.0,29,0.00,,,0.00,meteohub,2013-12-07 00:26:00,
2013-12-06 18:32:00,14.5,-11.9,30.46,SW,225,3.0,8.0,29,0.00,,,0.00,meteohub,2013-12-07 00:32:00,
2013-12-06 18:37:00,14.4,-12.1,30.46,North,0,6.0,8.0,29,0.00,,,0.00,meteohub,2013-12-07 00:37:00,
2013-12-06 18:42:00,14.4,-12.1,30.46,North,0,3.0,8.0,29,0.00,,,0.00,meteohub,2013-12-07 00:42:00,
2013-12-06 18:47:00,14.4,-12.1,30.46,NW,315,4.0,6.0,29,0.00,,,0.00,meteohub,2013-12-07 00:47:00,
2013-12-06 18:52:00,14.2,-12.3,30.47,WSW,248,4.0,8.0,29,0.00,,,0.00,meteohub,2013-12-07 00:52:00,
2013-12-06 18:57:00,14.2,-12.3,30.47,NW,315,4.0,8.0,29,0.00,,,0.00,meteohub,2013-12-07 00:57:00,
2013-12-06 19:02:00,14.2,-12.3,30.47,North,0,7.0,8.0,29,0.00,,,0.00,meteohub,2013-12-07 01:02:00,
2013-12-06 19:07:00,14.2,-12.3,30.47,North,0,7.0,8.0,29,0.00,,,0.00,meteohub,2013-12-07 01:07:00,
2013-12-06 19:12:00,14.0,-11.7,30.48,NW,315,2.0,7.0,30,0.00,,,0.00,meteohub,2013-12-07 01:12:00,
2013-12-06 19:17:00,13.8,-11.9,30.47,NW,315,4.0,8.0,30,0.00,,,0.00,meteohub,2013-12-07 01:17:00,
2013-12-06 19:22:00,13.8,-11.2,30.47,North,0,6.0,8.0,31,0.00,,,0.00,meteohub,2013-12-07 01:22:00,
2013-12-06 19:27:00,13.6,-11.4,30.47,SSW,203,4.0,9.0,31,0.00,,,0.00,meteohub,2013-12-07 01:27:00,
2013-12-06 19:32:00,13.5,-11.6,30.48,ESE,113,6.0,9.0,31,0.00,,,0.00,meteohub,2013-12-07 01:32:00,
2013-12-06 19:37:00,13.3,-11.0,30.48,SW,225,3.0,9.0,32,0.00,,,0.00,meteohub,2013-12-07 01:37:00,
2013-12-06 19:42:00,12.9,-11.4,30.48,North,0,4.0,7.0,32,0.00,,,0.00,meteohub,2013-12-07 01:42:00,
2013-12-06 19:47:00,12.7,-11.0,30.48,NE,45,4.0,6.0,33,0.00,,,0.00,meteohub,2013-12-07 01:47:00,
2013-12-06 19:52:00,12.4,-10.7,30.49,SW,225,2.0,7.0,34,0.00,,,0.00,meteohub,2013-12-07 01:52:00,
2013-12-06 19:57:00,12.2,-10.8,30.49,SSW,203,5.0,7.0,34,0.00,,,0.00,meteohub,2013-12-07 01:57:00,
2013-12-06 20:02:00,12.0,-11.0,30.49,NW,315,4.0,7.0,34,0.00,,,0.00,meteohub,2013-12-07 02:02:00,
2013-12-06 20:07:00,12.0,-11.0,30.49,NW,315,4.0,6.0,34,0.00,,,0.00,meteohub,2013-12-07 02:07:00,
2013-12-06 20:12:00,11.7,-10.1,30.49,West,270,3.0,6.0,36,0.00,,,0.00,meteohub,2013-12-07 02:12:00,
2013-12-06 20:17:00,11.5,-10.3,30.50,NW,315,4.0,5.0,36,0.00,,,0.00,meteohub,2013-12-07 02:17:00,
2013-12-06 20:22:00,11.3,-9.9,30.51,SW,225,4.0,5.0,37,0.00,,,0.00,meteohub,2013-12-07 02:22:00,
2013-12-06 20:27:00,11.3,-9.9,30.51,NW,315,3.0,8.0,37,0.00,,,0.00,meteohub,2013-12-07 02:27:00,
2013-12-06 20:32:00,11.1,-9.6,30.51,West,270,2.0,8.0,38,0.00,,,0.00,meteohub,2013-12-07 02:32:00,
2013-12-06 20:37:00,10.9,-9.8,30.51,SW,225,2.0,8.0,38,0.00,,,0.00,meteohub,2013-12-07 02:37:00,
2013-12-06 20:42:00,10.8,-9.4,30.51,NW,315,3.0,5.0,39,0.00,,,0.00,meteohub,2013-12-07 02:42:00,
2013-12-06 20:47:00,10.6,-9.6,30.51,West,270,2.0,4.0,39,0.00,,,0.00,meteohub,2013-12-07 02:47:00,
2013-12-06 20:52:00,10.6,-9.0,30.51,North,0,4.0,4.0,40,0.00,,,0.00,meteohub,2013-12-07 02:52:00,
2013-12-06 20:57:00,10.6,-8.5,30.51,North,0,5.0,5.0,41,0.00,,,0.00,meteohub,2013-12-07 02:57:00,
2013-12-06 21:02:00,10.6,-8.5,30.52,NW,315,6.0,6.0,41,0.00,,,0.00,meteohub,2013-12-07 03:02:00,
2013-12-06 21:07:00,10.6,-8.5,30.52,NW,315,6.0,6.0,41,0.00,,,0.00,meteohub,2013-12-07 03:07:00,
2013-12-06 21:12:00,10.4,-8.1,30.52,West,270,2.0,6.0,42,0.00,,,0.00,meteohub,2013-12-07 03:12:00,
2013-12-06 21:17:00,10.4,-8.1,30.52,North,0,3.0,8.0,42,0.00,,,0.00,meteohub,2013-12-07 03:17:00,
2013-12-06 21:22:00,10.4,-8.1,30.52,West,270,4.0,8.0,42,0.00,,,0.00,meteohub,2013-12-07 03:22:00,
2013-12-06 21:27:00,10.4,-7.6,30.52,North,0,3.0,8.0,43,0.00,,,0.00,meteohub,2013-12-07 03:27:00,
2013-12-06 21:32:00,10.4,-7.6,30.52,NE,45,3.0,4.0,43,0.00,,,0.00,meteohub,2013-12-07 03:32:00,
2013-12-06 21:37:00,10.2,-7.4,30.52,SW,225,3.0,4.0,44,0.00,,,0.00,meteohub,2013-12-07 03:37:00,
2013-12-06 21:42:00,10.2,-7.4,30.52,NW,315,2.0,5.0,44,0.00,,,0.00,meteohub,2013-12-07 03:42:00,
2013-12-06 21:47:00,10.0,-7.6,30.52,SW,225,3.0,5.0,44,0.00,,,0.00,meteohub,2013-12-07 03:47:00,
2013-12-06 21:52:00,10.2,-7.4,30.53,NW,315,2.0,7.0,44,0.00,,,0.00,meteohub,2013-12-07 03:52:00,
2013-12-06 21:57:00,10.0,-7.6,30.54,West,270,3.0,7.0,44,0.00,,,0.00,meteohub,2013-12-07 03:57:00,
2013-12-06 22:02:00,10.0,-7.6,30.54,North,0,2.0,7.0,44,0.00,,,0.00,meteohub,2013-12-07 04:02:00,
2013-12-06 22:07:00,10.0,-7.6,30.54,North,0,2.0,6.0,44,0.00,,,0.00,meteohub,2013-12-07 04:07:00,
2013-12-06 22:12:00,9.7,-7.4,30.54,West,270,2.0,4.0,45,0.00,,,0.00,meteohub,2013-12-07 04:12:00,
2013-12-06 22:17:00,9.7,-6.9,30.54,SW,225,2.0,4.0,46,0.00,,,0.00,meteohub,2013-12-07 04:17:00,
2013-12-06 22:22:00,9.7,-6.9,30.54,West,270,3.0,4.0,46,0.00,,,0.00,meteohub,2013-12-07 04:22:00,
2013-12-06 22:27:00,9.5,-7.1,30.53,NW,315,4.0,4.0,46,0.00,,,0.00,meteohub,2013-12-07 04:27:00,
2013-12-06 22:32:00,9.5,-7.1,30.54,NW,315,2.0,4.0,46,0.00,,,0.00,meteohub,2013-12-07 04:32:00,
2013-12-06 22:37:00,9.3,-7.2,30.54,NW,315,2.0,4.0,46,0.00,,,0.00,meteohub,2013-12-07 04:37:00,
2013-12-06 22:42:00,9.3,-7.2,30.54,West,270,3.0,4.0,46,0.00,,,0.00,meteohub,2013-12-07 04:42:00,
2013-12-06 22:47:00,9.3,-6.9,30.53,West,270,5.0,5.0,47,0.00,,,0.00,meteohub,2013-12-07 04:47:00,
2013-12-06 22:52:00,9.3,-6.9,30.54,North,0,4.0,6.0,47,0.00,,,0.00,meteohub,2013-12-07 04:52:00,
2013-12-06 22:57:00,9.1,-7.1,30.54,NW,315,2.0,6.0,47,0.00,,,0.00,meteohub,2013-12-07 04:57:00,
2013-12-06 23:01:00,9.1,-7.1,30.53,NE,45,6.0,6.0,47,0.00,,,0.00,meteohub,2013-12-07 05:01:00,
2013-12-06 23:02:00,9.1,-7.1,30.54,NE,45,6.0,6.0,47,0.00,,,0.00,meteohub,2013-12-07 05:02:00,
2013-12-06 23:04:00,9.1,-7.1,30.54,NE,45,6.0,6.0,47,0.00,,,0.00,meteohub,2013-12-07 05:04:00,
2013-12-06 23:05:00,9.1,-7.1,30.54,NE,45,6.0,6.0,47,0.00,,,0.00,meteohub,2013-12-07 05:05:00,
2013-12-06 23:10:00,8.8,-7.4,30.54,NW,315,2.0,6.0,47,0.00,,,0.00,meteohub,2013-12-07 05:10:00,
2013-12-06 23:15:00,8.8,-7.4,30.54,North,0,4.0,6.0,47,0.00,,,0.00,meteohub,2013-12-07 05:15:00,
2013-12-06 23:20:00,8.6,-7.4,30.54,SW,225,4.0,7.0,47,0.00,,,0.00,meteohub,2013-12-07 05:20:00,
2013-12-06 23:21:00,8.6,-7.1,30.55,NE,45,3.0,7.0,48,0.00,,,0.00,meteohub,2013-12-07 05:21:00,
2013-12-06 23:26:00,8.6,-7.1,30.55,NW,315,4.0,7.0,48,0.00,,,0.00,meteohub,2013-12-07 05:26:00,
2013-12-06 23:31:00,8.6,-7.1,30.55,NW,315,2.0,6.0,48,0.00,,,0.00,meteohub,2013-12-07 05:31:00,
2013-12-06 23:36:00,8.4,-7.2,30.55,SW,225,2.0,6.0,48,0.00,,,0.00,meteohub,2013-12-07 05:36:00,
2013-12-06 23:41:00,8.4,-7.2,30.55,North,0,2.0,5.0,48,0.00,,,0.00,meteohub,2013-12-07 05:41:00,
2013-12-06 23:46:00,8.2,-7.1,30.55,SW,225,2.0,4.0,49,0.00,,,0.00,meteohub,2013-12-07 05:46:00,
2013-12-06 23:52:00,8.2,-7.1,30.55,NW,315,3.0,4.0,49,0.00,,,0.00,meteohub,2013-12-07 05:52:00,
2013-12-06 23:57:00,8.1,-7.2,30.55,SW,225,4.0,4.0,49,0.00,,,0.00,meteohub,2013-12-07 05:57:00,